Date String (YYYY-MM-DD hh:mm:ss) UTC,Instrument flags,absolute air pressure of the measurement (hPa),sample flow rate (lpm),inlet stack bypass flow (lpm),air temperature of the measurement (°C),ambient temperature measured by the external sensor (°C),aerosol sample conditioner tube jacket temperature (°C),OPC LED temperature (°C),internal box temperature (°C),relative humidity of the measurement (%),span deviation,mass concentration of particles derived from Lorenz-Mie calculation of OPC scattering (μg/m³),mass concentration of particles derived from Lorenz-Mie calculation of OPC scattering (μg/m³),mass concentration of particles derived from Lorenz-Mie calculation of OPC scattering (μg/m³)
DateTimeUTC,F1_M11,P_M11,Q1_M11,Q2_M11,T1_M11,T2_M11,T3_M11,T4_M11,T5_M11,U1_M11,ZSPAN_M11,X2_M11,X0_M11,X1_M11
2024-05-24 23:00:00,SystemResetWarning,0823.1,5.00,000.00,029.8,029.1,000.0,038.0,031.5,009.6,0000.0,0002.53,0010.90,0001.18
2024-05-24 23:01:00,SystemResetWarning,0823.2,4.99,000.00,029.8,029.1,000.0,038.0,031.5,009.6,0000.0,0002.56,0010.87,0001.18
2024-05-24 23:02:00,SystemResetWarning,0823.2,5.00,000.00,029.8,029.1,000.0,038.0,031.5,009.2,0000.0,0002.64,0011.75,0001.18
2024-05-24 23:03:00,SystemResetWarning,0823.2,5.00,000.00,029.8,029.1,000.0,038.1,031.5,009.9,0000.0,0002.62,0011.38,0001.17
2024-05-24 23:04:00,SystemResetWarning,0823.2,5.00,000.00,029.8,029.1,000.0,038.1,031.5,009.8,0000.0,0002.68,0010.90,0001.17
2024-05-24 23:05:00,SystemResetWarning,0823.3,5.01,000.00,029.8,029.2,000.0,038.1,031.6,009.8,0000.0,0002.68,0010.27,0001.16
2024-05-24 23:06:00,SystemResetWarning,0823.2,5.00,000.00,029.8,029.2,000.0,038.1,031.6,009.1,0000.0,0002.71,0010.66,0001.16
2024-05-24 23:07:00,SystemResetWarning,0823.3,4.99,000.00,029.9,029.2,000.0,038.1,031.6,009.3,0000.0,0002.69,0010.98,0001.16
2024-05-24 23:08:00,SystemResetWarning,0823.3,5.00,000.00,029.9,029.2,000.0,038.1,031.6,009.3,0000.0,0002.68,0011.37,0001.16
2024-05-24 23:09:00,SystemResetWarning,0823.3,5.00,000.00,029.9,029.2,000.0,038.1,031.6,009.4,0000.0,0002.65,0011.47,0001.15
2024-05-24 23:10:00,SystemResetWarning,0823.3,5.00,000.00,029.9,029.2,000.0,038.2,031.6,009.1,0000.0,0002.66,0011.08,0001.16
2024-05-24 23:11:00,SystemResetWarning,0823.3,5.00,000.00,029.9,029.2,000.0,038.2,031.7,009.1,0000.0,0002.65,0011.06,0001.16
2024-05-24 23:12:00,SystemResetWarning,0823.3,5.00,000.00,029.9,029.3,000.0,038.2,031.7,009.3,0000.0,0002.68,0011.14,0001.16
2024-05-24 23:13:00,SystemResetWarning,0823.3,5.01,000.00,029.9,029.3,000.0,038.2,031.7,009.7,0000.0,0002.66,0010.17,0001.16
2024-05-24 23:14:00,SystemResetWarning,0823.3,5.01,000.00,030.0,029.3,000.0,038.2,031.7,010.0,0000.0,0002.63,0010.26,0001.17
2024-05-24 23:15:00,SystemResetWarning,0823.3,5.00,000.00,030.0,029.3,000.0,038.2,031.7,009.0,0000.0,0002.67,0011.23,0001.18
2024-05-24 23:16:00,SystemResetWarning,0823.3,5.01,000.00,030.0,029.3,000.0,038.2,031.7,009.7,0000.0,0002.71,0011.89,0001.18
2024-05-24 23:17:00,SystemResetWarning,0823.3,5.00,000.00,030.0,029.3,000.0,038.3,031.7,010.1,0000.0,0002.74,0012.63,0001.19
2024-05-24 23:18:00,SystemResetWarning,0823.3,5.00,000.00,030.0,029.3,000.0,038.3,031.7,010.2,0000.0,0002.76,0013.17,0001.20
2024-05-24 23:19:00,SystemResetWarning,0823.4,5.00,000.00,030.0,029.3,000.0,038.3,031.7,009.8,0000.0,0002.83,0013.55,0001.22
2024-05-24 23:20:00,SystemResetWarning,0823.4,5.00,000.00,030.0,029.4,000.0,038.3,031.8,010.5,0000.0,0002.90,0013.70,0001.22
2024-05-24 23:21:00,SystemResetWarning,0823.4,4.98,000.00,030.0,029.4,000.0,038.3,031.8,010.6,0000.0,0002.92,0014.39,0001.22
2024-05-24 23:22:00,SystemResetWarning,0823.4,5.00,000.00,030.1,029.4,000.0,038.3,031.7,010.4,0000.0,0003.06,0015.23,0001.23
2024-05-24 23:23:00,SystemResetWarning,0823.4,5.01,000.00,030.1,029.4,000.0,038.3,031.8,010.1,0000.0,0003.06,0015.13,0001.24
2024-05-24 23:24:00,SystemResetWarning,0823.3,5.01,000.00,030.1,029.4,000.0,038.3,031.8,010.0,0000.0,0003.04,0015.25,0001.25
2024-05-24 23:25:00,SystemResetWarning,0823.3,5.00,000.00,030.1,029.5,000.0,038.4,031.9,009.6,0000.0,0003.04,0015.37,0001.25
2024-05-24 23:26:00,SystemResetWarning,0823.3,5.00,000.00,030.1,029.5,000.0,038.4,031.9,010.0,0000.0,0003.00,0014.84,0001.25
2024-05-24 23:27:00,SystemResetWarning,0823.3,5.00,000.00,030.2,029.5,000.0,038.4,031.9,009.2,0000.0,0002.91,0014.29,0001.25
2024-05-24 23:28:00,SystemResetWarning,0823.3,5.00,000.00,030.2,029.5,000.0,038.4,031.9,009.5,0000.0,0002.87,0013.87,0001.24
2024-05-24 23:29:00,SystemResetWarning,0823.3,5.00,000.00,030.2,029.5,000.0,038.4,031.9,009.4,0000.0,0002.81,0013.47,0001.23
2024-05-24 23:30:00,SystemResetWarning,0823.3,5.01,000.00,030.2,029.6,000.0,038.4,032.0,009.9,0000.0,0002.79,0012.68,0001.22
2024-05-24 23:31:00,SystemResetWarning,0823.3,5.00,000.00,030.2,029.6,000.0,038.5,032.0,009.4,0000.0,0002.74,0012.55,0001.21
2024-05-24 23:32:00,SystemResetWarning,0823.3,5.00,000.00,030.3,029.6,000.0,038.5,032.0,009.1,0000.0,0002.68,0012.02,0001.20
2024-05-24 23:33:00,SystemResetWarning,0823.3,5.00,000.00,030.3,029.6,000.0,038.5,032.0,009.6,0000.0,0002.62,0012.19,0001.19
2024-05-24 23:34:00,SystemResetWarning,0823.3,5.00,000.00,030.3,029.6,000.0,038.5,032.0,009.2,0000.0,0002.62,0011.76,0001.17
2024-05-24 23:35:00,SystemResetWarning,0823.3,5.00,000.00,030.3,029.7,000.0,038.5,032.0,008.1,0000.0,0002.67,0012.07,0001.17
2024-05-24 23:36:00,SystemResetWarning,0823.3,5.00,000.00,030.3,029.7,000.0,038.5,032.1,007.9,0000.0,0002.66,0012.24,0001.16
2024-05-24 23:37:00,SystemResetWarning,0823.3,5.00,000.00,030.4,029.7,000.0,038.6,032.1,008.0,0000.0,0002.61,0011.57,0001.14
2024-05-24 23:38:00,SystemResetWarning,0823.3,5.00,000.00,030.4,029.7,000.0,038.6,032.1,008.2,0000.0,0002.58,0011.31,0001.13
2024-05-24 23:39:00,SystemResetWarning,0823.3,5.00,000.00,030.4,029.8,000.0,038.6,032.1,008.7,0000.0,0002.57,0011.25,0001.13
2024-05-24 23:40:00,SystemResetWarning,0823.3,5.00,000.00,030.4,029.8,000.0,038.6,032.1,009.8,0000.0,0002.47,0012.64,0001.13
2024-05-24 23:41:00,SystemResetWarning,0823.3,5.00,000.00,030.4,029.8,000.0,038.6,032.1,009.9,0000.0,0002.47,0012.09,0001.13
2024-05-24 23:42:00,SystemResetWarning,0823.3,5.01,000.00,030.5,029.8,000.0,038.7,032.2,009.8,0000.0,0002.46,0012.90,0001.14
2024-05-24 23:43:00,SystemResetWarning,0823.3,5.00,000.00,030.5,029.9,000.0,038.7,032.2,010.6,0000.0,0002.50,0013.55,0001.15
2024-05-24 23:44:00,SystemResetWarning,0823.3,5.00,000.00,030.5,029.9,000.0,038.7,032.2,009.8,0000.0,0002.56,0013.59,0001.18
2024-05-24 23:45:00,SystemResetWarning,0823.3,5.00,000.00,030.5,029.9,000.0,038.7,032.2,009.5,0000.0,0002.68,0013.71,0001.19
2024-05-24 23:46:00,SystemResetWarning,0823.3,4.99,000.00,030.6,029.9,000.0,038.7,032.3,009.3,0000.0,0002.58,0013.98,0001.21
2024-05-24 23:47:00,SystemResetWarning,0823.3,4.99,000.00,030.6,029.9,000.0,038.8,032.3,009.7,0000.0,0002.51,0014.17,0001.22
2024-05-24 23:48:00,SystemResetWarning,0823.3,5.00,000.00,030.6,029.9,000.0,038.8,032.3,009.5,0000.0,0002.58,0014.16,0001.24
2024-05-24 23:49:00,SystemResetWarning,0823.3,5.00,000.00,030.6,030.0,000.0,038.8,032.3,010.6,0000.0,0002.63,0014.20,0001.25
2024-05-24 23:50:00,SystemResetWarning,0823.3,5.00,000.00,030.6,030.0,000.0,038.8,032.3,010.6,0000.0,0002.69,0014.24,0001.26
2024-05-24 23:51:00,SystemResetWarning,0823.3,5.01,000.00,030.6,030.0,000.0,038.8,032.3,010.5,0000.0,0002.85,0012.78,0001.29
2024-05-24 23:52:00,SystemResetWarning,0823.3,5.01,000.00,030.7,030.0,000.0,038.9,032.4,010.4,0000.0,0002.93,0012.76,0001.30
2024-05-24 23:53:00,SystemResetWarning,0823.2,4.99,000.00,030.7,030.0,000.0,038.9,032.4,010.5,0000.0,0003.02,0012.82,0001.31
2024-05-24 23:54:00,SystemResetWarning,0823.2,4.99,000.00,030.7,030.0,000.0,038.9,032.4,011.0,0000.0,0003.08,0013.43,0001.31
2024-05-24 23:55:00,SystemResetWarning,0823.1,5.00,000.00,030.7,030.1,000.0,038.9,032.4,009.9,0000.0,0003.03,0013.30,0001.30
2024-05-24 23:56:00,SystemResetWarning,0823.1,5.00,000.00,030.7,030.1,000.0,038.9,032.4,009.9,0000.0,0002.94,0012.40,0001.30
2024-05-24 23:57:00,SystemResetWarning,0823.2,5.02,000.00,030.7,030.1,000.0,038.9,032.4,010.0,0000.0,0002.98,0011.70,0001.30
2024-05-24 23:58:00,SystemResetWarning,0823.2,4.99,000.00,030.8,030.1,000.0,039.0,032.4,010.2,0000.0,0003.06,0011.09,0001.29
2024-05-24 23:59:00,SystemResetWarning,0823.2,4.99,000.00,030.8,030.1,000.0,039.0,032.5,010.3,0000.0,0003.10,0011.72,0001.30
